Time,TemperatureF,DewpointF,PressureIn,WindDirection,WindDirectionDegrees,WindSpeedMPH,WindSpeedGustMPH,Humidity,HourlyPrecipIn,Conditions,Clouds,dailyrainin,SoftwareType,DateUTC
2013-07-07 00:01:00,73.0,-99.9,30.03,WSW,251,9.0,15.0,-999,-99.99,,,-99.99,,2013-07-07 04:01:00,
2013-07-07 00:11:00,73.0,-99.9,30.02,WSW,250,8.0,14.0,-999,-99.99,,,-99.99,,2013-07-07 04:11:00,
2013-07-07 00:21:00,73.0,-99.9,30.02,WSW,250,8.0,14.0,-999,-99.99,,,-99.99,,2013-07-07 04:21:00,
2013-07-07 00:31:00,73.0,-99.9,30.02,WSW,249,9.0,14.0,-999,-99.99,,,-99.99,,2013-07-07 04:31:00,
2013-07-07 00:42:00,73.0,-99.9,30.02,WSW,245,8.0,13.0,-999,-99.99,,,-99.99,,2013-07-07 04:42:00,
2013-07-07 00:52:00,73.0,-99.9,30.02,WSW,249,7.0,12.0,-999,-99.99,,,-99.99,,2013-07-07 04:52:00,
2013-07-07 01:01:00,73.0,-99.9,30.02,WSW,250,8.0,13.0,-999,-99.99,,,-99.99,,2013-07-07 05:01:00,
2013-07-07 01:11:00,73.0,-99.9,30.02,WSW,257,7.0,12.0,-999,-99.99,,,-99.99,,2013-07-07 05:11:00,
2013-07-07 01:21:00,73.0,-99.9,30.02,WSW,257,7.0,12.0,-999,-99.99,,,-99.99,,2013-07-07 05:21:00,
2013-07-07 01:32:00,73.0,-99.9,30.02,WSW,257,6.0,10.0,-999,-99.99,,,-99.99,,2013-07-07 05:32:00,
2013-07-07 01:41:00,73.0,-99.9,30.02,WSW,248,6.0,10.0,-999,-99.99,,,-99.99,,2013-07-07 05:41:00,
2013-07-07 01:51:00,73.0,-99.9,30.02,WSW,253,6.0,11.0,-999,-99.99,,,-99.99,,2013-07-07 05:51:00,
2013-07-07 02:01:00,72.0,-99.9,30.02,WSW,245,7.0,11.0,-999,-99.99,,,-99.99,,2013-07-07 06:01:00,
2013-07-07 02:11:00,72.0,-99.9,30.02,WSW,252,7.0,12.0,-999,-99.99,,,-99.99,,2013-07-07 06:11:00,
2013-07-07 02:32:00,72.0,-99.9,30.03,West,260,5.0,10.0,-999,-99.99,,,-99.99,,2013-07-07 06:32:00,
2013-07-07 02:43:00,72.0,-99.9,30.03,WSW,256,6.0,9.0,-999,-99.99,,,-99.99,,2013-07-07 06:43:00,
2013-07-07 02:52:00,72.0,-99.9,30.03,WSW,256,5.0,9.0,-999,-99.99,,,-99.99,,2013-07-07 06:52:00,
2013-07-07 03:02:00,72.0,-99.9,30.02,WSW,255,5.0,10.0,-999,-99.99,,,-99.99,,2013-07-07 07:02:00,
2013-07-07 03:11:00,71.0,-99.9,30.02,West,259,5.0,9.0,-999,-99.99,,,-99.99,,2013-07-07 07:11:00,
2013-07-07 03:34:00,71.0,-99.9,30.02,WSW,256,5.0,8.0,-999,-99.99,,,-99.99,,2013-07-07 07:34:00,
2013-07-07 03:44:00,71.0,-99.9,30.02,WSW,254,6.0,8.0,-999,-99.99,,,-99.99,,2013-07-07 07:44:00,
2013-07-07 03:53:00,71.0,-99.9,30.02,West,260,4.0,9.0,-999,-99.99,,,-99.99,,2013-07-07 07:53:00,
2013-07-07 04:03:00,71.0,-99.9,30.02,WSW,254,3.0,6.0,-999,-99.99,,,-99.99,,2013-07-07 08:03:00,
2013-07-07 04:12:00,71.0,-99.9,30.02,WSW,248,2.0,6.0,-999,-99.99,,,-99.99,,2013-07-07 08:12:00,
2013-07-07 04:34:00,70.0,-99.9,30.01,WSW,240,4.0,6.0,-999,-99.99,,,-99.99,,2013-07-07 08:34:00,
2013-07-07 04:44:00,70.0,-99.9,30.01,WSW,244,5.0,9.0,-999,-99.99,,,-99.99,,2013-07-07 08:44:00,
2013-07-07 04:53:00,70.0,-99.9,30.01,WSW,244,7.0,9.0,-999,-99.99,,,-99.99,,2013-07-07 08:53:00,
2013-07-07 05:02:00,70.0,-99.9,30.01,WSW,240,7.0,10.0,-999,-99.99,,,-99.99,,2013-07-07 09:02:00,
2013-07-07 05:12:00,70.0,-99.9,30.01,WSW,246,7.0,10.0,-999,-99.99,,,-99.99,,2013-07-07 09:12:00,
2013-07-07 05:34:00,71.0,-99.9,30.02,WSW,239,6.0,9.0,-999,-99.99,,,-99.99,,2013-07-07 09:34:00,
2013-07-07 05:43:00,71.0,-99.9,30.02,WSW,240,7.0,10.0,-999,-99.99,,,-99.99,,2013-07-07 09:43:00,
2013-07-07 05:53:00,71.0,-99.9,30.02,WSW,240,7.0,10.0,-999,-99.99,,,-99.99,,2013-07-07 09:53:00,
2013-07-07 06:03:00,71.0,-99.9,30.02,WSW,243,8.0,11.0,-999,-99.99,,,-99.99,,2013-07-07 10:03:00,
2013-07-07 06:12:00,71.0,-99.9,30.02,WSW,248,7.0,10.0,-999,-99.99,,,-99.99,,2013-07-07 10:12:00,
2013-07-07 06:32:00,72.0,-99.9,30.02,WSW,245,6.0,9.0,-999,-99.99,,,-99.99,,2013-07-07 10:32:00,
2013-07-07 06:44:00,72.0,-99.9,30.02,WSW,247,6.0,10.0,-999,-99.99,,,-99.99,,2013-07-07 10:44:00,
2013-07-07 06:52:00,73.0,-99.9,30.02,WSW,250,6.0,9.0,-999,-99.99,,,-99.99,,2013-07-07 10:52:00,
2013-07-07 07:02:00,73.0,-99.9,30.02,WSW,247,5.0,9.0,-999,-99.99,,,-99.99,,2013-07-07 11:02:00,
2013-07-07 07:12:00,73.0,-99.9,30.02,WSW,243,5.0,10.0,-999,-99.99,,,-99.99,,2013-07-07 11:12:00,
2013-07-07 07:34:00,75.0,-99.9,30.03,WSW,247,6.0,8.0,-999,-99.99,,,-99.99,,2013-07-07 11:34:00,
2013-07-07 07:43:00,75.0,-99.9,30.03,WSW,255,7.0,9.0,-999,-99.99,,,-99.99,,2013-07-07 11:43:00,
2013-07-07 07:53:00,76.0,-99.9,30.03,WSW,246,6.0,8.0,-999,-99.99,,,-99.99,,2013-07-07 11:53:00,
2013-07-07 08:02:00,77.0,-99.9,30.03,WSW,253,7.0,8.0,-999,-99.99,,,-99.99,,2013-07-07 12:02:00,
2013-07-07 08:34:00,80.0,-99.9,30.03,WSW,247,5.0,9.0,-999,-99.99,,,-99.99,,2013-07-07 12:34:00,
2013-07-07 08:43:00,80.0,-99.9,30.03,WSW,246,6.0,8.0,-999,-99.99,,,-99.99,,2013-07-07 12:43:00,
2013-07-07 08:52:00,80.0,-99.9,30.03,WSW,252,6.0,9.0,-999,-99.99,,,-99.99,,2013-07-07 12:52:00,
2013-07-07 09:03:00,81.0,-99.9,30.03,West,261,5.0,9.0,-999,-99.99,,,-99.99,,2013-07-07 13:03:00,
2013-07-07 09:34:00,82.0,-99.9,30.03,SW,234,6.0,10.0,-999,-99.99,,,-99.99,,2013-07-07 13:34:00,
2013-07-07 09:43:00,82.0,-99.9,30.03,SW,230,5.0,12.0,-999,-99.99,,,-99.99,,2013-07-07 13:43:00,
2013-07-07 09:52:00,82.0,-99.9,30.03,WSW,247,8.0,10.0,-999,-99.99,,,-99.99,,2013-07-07 13:52:00,
2013-07-07 10:02:00,82.0,-99.9,30.03,WSW,253,5.0,9.0,-999,-99.99,,,-99.99,,2013-07-07 14:02:00,
2013-07-07 10:12:00,81.0,-99.9,30.03,WSW,242,7.0,12.0,-999,-99.99,,,-99.99,,2013-07-07 14:12:00,
2013-07-07 10:22:00,81.0,-99.9,30.03,WSW,242,7.0,12.0,-999,-99.99,,,-99.99,,2013-07-07 14:22:00,
2013-07-07 10:34:00,81.0,-99.9,30.03,WSW,251,8.0,11.0,-999,-99.99,,,-99.99,,2013-07-07 14:34:00,
2013-07-07 10:43:00,80.0,-99.9,30.03,WSW,245,6.0,12.0,-999,-99.99,,,-99.99,,2013-07-07 14:43:00,
2013-07-07 10:53:00,79.0,-99.9,30.03,SW,234,7.0,12.0,-999,-99.99,,,-99.99,,2013-07-07 14:53:00,
2013-07-07 11:02:00,80.0,-99.9,30.03,SW,235,7.0,9.0,-999,-99.99,,,-99.99,,2013-07-07 15:02:00,
2013-07-07 11:12:00,80.0,-99.9,30.03,WSW,249,8.0,13.0,-999,-99.99,,,-99.99,,2013-07-07 15:12:00,
2013-07-07 11:22:00,80.0,-99.9,30.03,WSW,249,8.0,13.0,-999,-99.99,,,-99.99,,2013-07-07 15:22:00,
2013-07-07 11:43:00,81.0,-99.9,30.02,West,263,6.0,11.0,-999,-99.99,,,-99.99,,2013-07-07 15:43:00,
2013-07-07 11:52:00,82.0,-99.9,30.02,West,275,7.0,11.0,-999,-99.99,,,-99.99,,2013-07-07 15:52:00,
2013-07-07 12:02:00,81.0,-99.9,30.02,West,260,8.0,13.0,-999,-99.99,,,-99.99,,2013-07-07 16:02:00,
2013-07-07 12:11:00,81.0,-99.9,30.02,WSW,249,6.0,13.0,-999,-99.99,,,-99.99,,2013-07-07 16:11:00,
2013-07-07 12:43:00,82.0,-99.9,30.02,WSW,244,6.0,14.0,-999,-99.99,,,-99.99,,2013-07-07 16:43:00,
2013-07-07 12:53:00,82.0,-99.9,30.02,WSW,243,7.0,14.0,-999,-99.99,,,-99.99,,2013-07-07 16:53:00,
2013-07-07 13:02:00,81.0,-99.9,30.02,WSW,245,9.0,15.0,-999,-99.99,,,-99.99,,2013-07-07 17:02:00,
2013-07-07 13:12:00,81.0,-99.9,30.02,WSW,249,9.0,13.0,-999,-99.99,,,-99.99,,2013-07-07 17:12:00,
2013-07-07 13:34:00,81.0,-99.9,30.02,SW,233,8.0,12.0,-999,-99.99,,,-99.99,,2013-07-07 17:34:00,
2013-07-07 13:43:00,80.0,-99.9,30.02,WSW,241,10.0,13.0,-999,-99.99,,,-99.99,,2013-07-07 17:43:00,
2013-07-07 13:53:00,81.0,-99.9,30.01,WSW,247,9.0,14.0,-999,-99.99,,,-99.99,,2013-07-07 17:53:00,
2013-07-07 14:02:00,81.0,-99.9,30.01,WSW,244,10.0,13.0,-999,-99.99,,,-99.99,,2013-07-07 18:02:00,
2013-07-07 14:12:00,81.0,-99.9,30.01,WSW,246,11.0,14.0,-999,-99.99,,,-99.99,,2013-07-07 18:12:00,
2013-07-07 14:22:00,81.0,-99.9,30.01,WSW,246,11.0,14.0,-999,-99.99,,,-99.99,,2013-07-07 18:22:00,
2013-07-07 14:33:00,80.0,-99.9,30.01,SW,225,10.0,14.0,-999,-99.99,,,-99.99,,2013-07-07 18:33:00,
2013-07-07 14:43:00,80.0,-99.9,30.01,WSW,252,11.0,15.0,-999,-99.99,,,-99.99,,2013-07-07 18:43:00,
2013-07-07 14:53:00,80.0,-99.9,30.01,WSW,243,7.0,14.0,-999,-99.99,,,-99.99,,2013-07-07 18:53:00,
2013-07-07 15:01:00,80.0,-99.9,30.00,WSW,248,10.0,14.0,-999,-99.99,,,-99.99,,2013-07-07 19:01:00,
2013-07-07 15:22:00,81.0,-99.9,30.00,WSW,258,10.0,14.0,-999,-99.99,,,-99.99,,2013-07-07 19:22:00,
2013-07-07 15:43:00,81.0,-99.9,29.99,WSW,249,7.0,14.0,-999,-99.99,,,-99.99,,2013-07-07 19:43:00,
2013-07-07 15:54:00,80.0,-99.9,29.98,WSW,246,11.0,17.0,-999,-99.99,,,-99.99,,2013-07-07 19:54:00,
2013-07-07 16:02:00,81.0,-99.9,29.98,WSW,240,8.0,18.0,-999,-99.99,,,-99.99,,2013-07-07 20:02:00,
2013-07-07 16:11:00,81.0,-99.9,29.98,WSW,241,6.0,15.0,-999,-99.99,,,-99.99,,2013-07-07 20:11:00,
2013-07-07 16:34:00,80.0,-99.9,29.98,WSW,240,9.0,15.0,-999,-99.99,,,-99.99,,2013-07-07 20:34:00,
2013-07-07 16:42:00,80.0,-99.9,29.98,WSW,249,9.0,18.0,-999,-99.99,,,-99.99,,2013-07-07 20:42:00,
2013-07-07 16:53:00,79.0,-99.9,29.98,WSW,251,8.0,17.0,-999,-99.99,,,-99.99,,2013-07-07 20:53:00,
2013-07-07 17:02:00,78.0,-99.9,29.98,SW,233,10.0,17.0,-999,-99.99,,,-99.99,,2013-07-07 21:02:00,
2013-07-07 17:22:00,78.0,-99.9,29.98,WSW,242,11.0,17.0,-999,-99.99,,,-99.99,,2013-07-07 21:22:00,
2013-07-07 17:53:00,79.0,-99.9,29.97,SW,235,9.0,19.0,-999,-99.99,,,-99.99,,2013-07-07 21:53:00,
2013-07-07 18:02:00,78.0,-99.9,29.97,WSW,242,10.0,18.0,-999,-99.99,,,-99.99,,2013-07-07 22:02:00,
2013-07-07 18:11:00,78.0,-99.9,29.98,WSW,238,9.0,13.0,-999,-99.99,,,-99.99,,2013-07-07 22:11:00,
2013-07-07 18:44:00,77.0,-99.9,29.98,SW,230,9.0,15.0,-999,-99.99,,,-99.99,,2013-07-07 22:44:00,
2013-07-07 19:02:00,75.0,-99.9,29.98,WSW,237,8.0,12.0,-999,-99.99,,,-99.99,,2013-07-07 23:02:00,
2013-07-07 19:12:00,74.0,-99.9,29.98,WSW,240,9.0,17.0,-999,-99.99,,,-99.99,,2013-07-07 23:12:00,
2013-07-07 19:22:00,74.0,-99.9,29.98,WSW,240,9.0,17.0,-999,-99.99,,,-99.99,,2013-07-07 23:22:00,
2013-07-07 19:43:00,74.0,-99.9,29.97,SW,228,6.0,9.0,-999,-99.99,,,-99.99,,2013-07-07 23:43:00,
2013-07-07 20:22:00,73.0,-99.9,29.97,SW,215,7.0,12.0,-999,-99.99,,,-99.99,,2013-07-08 00:22:00,
2013-07-07 20:33:00,73.0,-99.9,29.96,SW,216,6.0,13.0,-999,-99.99,,,-99.99,,2013-07-08 00:33:00,
2013-07-07 21:01:00,73.0,-99.9,29.96,SW,220,8.0,12.0,-999,-99.99,,,-99.99,,2013-07-08 01:01:00,
2013-07-07 21:11:00,73.0,-99.9,29.96,SW,216,7.0,11.0,-999,-99.99,,,-99.99,,2013-07-08 01:11:00,
2013-07-07 21:32:00,73.0,-99.9,29.96,SW,220,6.0,12.0,-999,-99.99,,,-99.99,,2013-07-08 01:32:00,
2013-07-07 22:33:00,72.0,-99.9,29.98,SW,227,7.0,12.0,-999,-99.99,,,-99.99,,2013-07-08 02:33:00,
2013-07-07 23:02:00,72.0,-99.9,29.99,SW,227,6.0,12.0,-999,-99.99,,,-99.99,,2013-07-08 03:02:00,
2013-07-07 23:12:00,72.0,-99.9,29.99,SW,218,6.0,11.0,-999,-99.99,,,-99.99,,2013-07-08 03:12:00,
2013-07-07 23:34:00,72.0,-99.9,29.99,SW,215,6.0,12.0,-999,-99.99,,,-99.99,,2013-07-08 03:34:00,
2013-07-07 23:43:00,72.0,-99.9,29.99,SW,217,5.0,10.0,-999,-99.99,,,-99.99,,2013-07-08 03:43:00,
2013-07-07 23:52:00,72.0,-99.9,29.99,SW,224,7.0,11.0,-999,-99.99,,,-99.99,,2013-07-08 03:52:00,